FW0683 Weather Reports


time (UTC)temp
C
wind
direction
speed
KPH
gust
KPH
rain 1hr
cm
rain 24hr
cm
rain mn
cm
humidity
%
barometer
mb
20260505040026 14 160 0.0 0.0 0.00 0.00 0.00 55 1013.2
20260505034524 14 125 0.0 0.0 0.00 0.00 0.00 53 1013.2
20260505033025 15 320 0.0 1.6 0.00 0.00 0.00 52 1013.1
20260505031523 15 281 0.0 1.6 0.00 0.00 0.00 52 1013.0
20260505030023 15 59 0.0 3.2 0.00 0.00 0.00 51 1013.0
20260505024522 15 255 0.0 0.0 0.00 0.00 0.00 50 1013.2
20260505023022 16 171 0.0 1.6 0.00 0.00 0.00 49 1013.1
20260505021522 16 139 0.0 0.0 0.00 0.00 0.00 48 1013.0
20260505020021 16 252 0.0 8.0 0.00 0.00 0.00 49 1012.9
20260505014520 16 273 0.0 3.2 0.00 0.00 0.00 46 1012.7
20260505013020 16 225 0.0 6.4 0.00 0.00 0.00 47 1012.4
20260505011520 17 219 0.0 6.4 0.00 0.00 0.00 45 1012.1
20260505010019 17 180 0.0 9.7 0.00 0.00 0.00 43 1011.8
20260505004520 16 300 0.0 0.0 0.00 0.00 0.00 42 1011.4
20260505003022 16 334 0.0 0.0 0.00 0.00 0.00 42 1011.0
20260505001518 16 222 0.0 0.0 0.00 0.00 0.00 41 1010.7
20260505000017 17 222 0.0 0.0 0.00 0.00 0.00 40 1010.5
20260504234521 17 82 0.0 0.0 0.00 0.00 0.00 38 1010.2
20260504233016 18 164 0.0 0.0 0.00 0.00 0.00 36 1010.1
20260504231515 19 28 0.0 1.6 0.00 0.00 0.00 37 1010.0
20260504230016 20 284 0.0 0.0 0.00 0.00 0.00 35 1009.8
20260504224514 20 196 0.0 4.8 0.00 0.00 0.00 35 1009.6
20260504223014 20 6 0.0 0.0 0.00 0.00 0.00 33 1009.6
20260504221514 20 227 0.0 6.4 0.00 0.00 0.00 33 1009.4
20260504220013 21 20 0.0 8.0 0.00 0.00 0.00 32 1009.4
20260504214512 21 232 0.0 6.4 0.00 0.00 0.00 34 1009.4
20260504213016 21 276 0.0 3.2 0.00 0.00 0.00 31 1009.4
20260504211511 21 143 0.0 1.6 0.00 0.00 0.00 30 1009.4
20260504210010 21 260 0.0 4.8 0.00 0.00 0.00 30 1009.4
20260504204509 21 243 0.0 1.6 0.00 0.00 0.00 29 1009.3
20260504203015 21 237 0.0 6.4 0.00 0.00 0.00 29 1009.3
20260504201508 22 307 0.0 8.0 0.00 0.00 0.00 29 1009.3
20260504200007 22 117 0.0 11.3 0.00 0.00 0.00 28 1009.3
20260504194507 22 277 0.0 14.5 0.00 0.00 0.00 28 1009.3
20260504193013 22 331 0.0 3.2 0.00 0.00 0.00 28 1009.6
20260504191513 22 274 0.0 14.5 0.00 0.00 0.00 30 1009.6
20260504190002 21 39 0.0 1.6 0.00 0.00 0.00 29 1009.7
20260504184501 22 277 0.0 16.1 0.00 0.00 0.00 29 1009.9
20260504183101 22 162 0.0 14.5 0.00 0.00 0.00 29 1009.8
20260504181559 22 271 0.0 6.4 0.00 0.00 0.00 28 1009.9
20260504180059 22 124 0.0 11.3 0.00 0.00 0.00 29 1010.0
20260504174559 22 258 0.0 8.0 0.00 0.00 0.00 29 1010.0
20260504173056 21 273 0.0 9.7 0.00 0.00 0.00 29 1010.3
20260504171551 21 257 0.0 16.1 0.00 0.00 0.00 30 1010.3
20260504081523 4 142 0.0 0.0 0.00 0.03 0.00 76 1013.9
20260504050115 1 59 0.0 0.0 0.00 0.03 0.00 84 1013.6
20260504044556 1 59 0.0 0.0 0.00 0.05 0.00 83 1013.6
20260504043107 1 59 0.0 0.0 0.00 0.05 0.00 83 1013.5
20260504041554 1 59 0.0 0.0 0.00 0.05 0.00 82 1013.4